This demonstration page uses our WeatherBlox Daily Observations layout. Learn more.

Left ArrowRight Arrow

38.20091, -84.87328

Hourly Observations for July 27, 2019

Temp ( °F °C ) Dew Point ( °F °C ) Humidity (%) Winds ( mph kmh ) Pressure ( in mb ) Visibility ( mi km ) Precip ( " mm )
12:53 am 00:53 Clear 67 19.4 63 17.2 87 87 Calm 30.21 1023 8 13 0.00 0.00
1:53 am 01:53 Clear 66 18.9 62 16.7 87 87 Calm 30.21 1023 8 13 0.00 0.00
2:53 am 02:53 Clear 65 18.3 62 16.7 90 90 Calm 30.22 1023 7 11 0.00 0.00
3:53 am 03:53 Clear 64 17.8 62 16.7 93 93 Calm 30.22 1023 7 11 0.00 0.00
4:53 am 04:53 Clear 64 17.8 61 16.1 90 90 Calm 30.21 1023 7 11 0.00 0.00
5:53 am 05:53 Clear 63 17.2 61 16.1 93 93 Calm 30.22 1023 7 11 0.00 0.00
6:53 am 06:53 Sunny with Mist and Fog 63 17.2 61 16.1 93 93 Calm 30.24 1024 6 10 0.00 0.00
7:53 am 07:53 Sunny 67 19.4 63 17.2 87 87 Calm 30.25 1024 7 11 0.00 0.00
8:53 am 08:53 Sunny 74 23.3 66 18.9 76 76 Calm 30.26 1025 8 13 0.00 0.00
9:53 am 09:53 Sunny 79 26.1 65 18.3 62 62 SW 6 9 30.25 1025 7 11 0.00 0.00
10:53 am 10:53 Sunny 83 28.3 66 18.9 57 57 S 8 13 30.25 1025 7 11 0.00 0.00
11:53 am 11:53 Hazy 86 30 65 18.3 49 49 SSW 9 15 30.24 1024 6 10 0.00 0.00
12:53 pm 12:53 Hazy 84 28.9 62 16.7 48 48 WSW 6 9 30.24 1024 6 10 0.00 0.00
1:53 pm 13:53 Hazy 88 31.1 62 16.7 42 42 W 7 11 30.22 1023 6 10 0.00 0.00
2:53 pm 14:53 Hazy 89 31.7 61 16.1 39 39 SW 9 15 30.20 1023 6 10 0.00 0.00
3:53 pm 15:53 Hazy 88 31.1 61 16.1 40 40 SW 10 17 30.19 1022 6 10 0.00 0.00
4:53 pm 16:53 Hazy 88 31.1 61 16.1 40 40 SW 10 17 30.17 1022 6 10 0.00 0.00
5:53 pm 17:53 Hazy 88 31.1 61 16.1 40 40 SW 9 15 30.16 1022 6 10 0.00 0.00
6:53 pm 18:53 Sunny 87 30.6 62 16.7 43 43 WSW 8 13 30.16 1021 7 11 0.00 0.00
7:53 pm 19:53 Sunny 84 28.9 62 16.7 48 48 WSW 6 9 30.16 1021 7 11 0.00 0.00
8:53 pm 20:53 Sunny 80 26.7 65 18.3 60 60 WSW 3 6 30.17 1022 8 13 0.00 0.00
9:53 pm 21:53 Clear 74 23.3 65 18.3 74 74 SW 3 6 30.18 1022 8 13 0.00 0.00
10:53 pm 22:53 Clear 73 22.8 65 18.3 76 76 Calm 30.18 1022 9 14 0.00 0.00
11:53 pm 23:53 Clear 72 22.2 65 18.3 79 79 Calm 30.17 1022 7 11 0.00 0.00

Powered by AerisWeather